Regional Weather Roundup
Issued by NWS Charleston, WV

Home | Current Version | Previous Version | Graphics & Text | Print | Product List | Glossary On
Versions: 1 2 3 4 5 6 7 8 9 10 11 12 13 14 15 16 17 18 19 20 21 22 23 24 25 26 27 28 29 30 31 32 33 34 35 36 37 38 39 40 41 42 43 44 45 46 47 48 49 50
000
ASUS41 KRLX 180810
RWRRLX
West Virginia Regional Weather Roundup
National Weather Service Charleston WV
400 AM EDT SAT APR 18 2015

Note: "fair" indicates few or no clouds below 12,000 feet with no
significant weather and/or obstructions to visibility.

WVZ003-180900-
Northern Panhandle of West Virginia

CITY           SKY/WX    TMP DP  RH WIND       PRES   REMARKS
WHEELING       CLEAR     54  46  74 CALM      30.03R
$$

WVZ009-180900-
Northwest West Virginia

CITY           SKY/WX    TMP DP  RH WIND       PRES   REMARKS
PARKERSBURG    CLEAR     52  49  89 CALM      30.05R
$$

WVZ006-180900-
Western West Virginia

CITY           SKY/WX    TMP DP  RH WIND       PRES   REMARKS
HUNTINGTON     MOCLDY    54  52  93 CALM      30.03R
$$

WVZ015-180900-
West Central West Virginia

CITY           SKY/WX    TMP DP  RH WIND       PRES   REMARKS
CHARLESTON     PTCLDY    56  54  93 CALM      30.02R
$$

WVZ022-031-180900-
North Central West Virginia

CITY           SKY/WX    TMP DP  RH WIND       PRES   REMARKS
CLARKSBURG     FOG       49  49 100 CALM      30.02R VSB 1/4
MORGANTOWN     FOG       52  49  89 CALM      30.04R VSB 1/2
$$

WVZ025-035-042-045-180900-
Southern West Virginia

CITY           SKY/WX    TMP DP  RH WIND       PRES   REMARKS
BECKLEY        PTCLDY    55  50  83 CALM      30.05S
LOGAN            N/A     59  55  88 CALM      30.01R
BLUEFIELD      CLEAR     61  51  70 NW3       30.07R
LEWISBURG      PTCLDY    51  49  92 CALM      30.05S
$$

WVZ047-180900-
Northern Mountains of West Virginia

CITY           SKY/WX    TMP DP  RH WIND       PRES   REMARKS
ELKINS         FOG       50  48  93 CALM      30.05S VSB 1/4
$$

WVZ052-180900-
Eastern Panhandle of West Virginia

CITY           SKY/WX    TMP DP  RH WIND       PRES   REMARKS
MARTINSBURG    PTCLDY    54  49  83 CALM      30.00S
PETERSBURG     PTCLDY    46  43  89 CALM      30.04S FOG
$$



USA.gov is the U.S. government's official web portal to all federal, state and local government web resources and services.